GFSSW_con_lsi_000.txt.gz
Lid_Strength_Index
1 1 0 -0 -0 -0 -1 -1 -1 -0 -0 -1 -1 -1 -1 -1 -0 4 6 4 2 -2 -1 4 4 4 4 5 5 6 8 9 9 10 9 9 9 9 9 9 9 8 8 9 8
1 1 1 0 0 0 -0 -0 -0 -0 -0 -0 -0 -1 -1 -0 4 6 2 -1 -1 -1 5 5 5 5 5 6 6 7 8 9 8 8 8 8 8 8 9 9 9 9 9 10 9
1 1 1 1 1 0 -0 -0 -0 -0 -0 -0 -0 -0 -0 0 5 5 1 -1 -1 0 4 5 5 6 6 6 7 8 8 8 8 8 8 8 9 8 8 8 7 7 7 9 9
1 1 1 1 1 0 0 -0 -0 -0 -0 -0 -1 -0 0 3 8 5 -0 1 0 3 5 6 6 6 7 8 7 8 8 8 8 8 8 9 8 9 8 7 7 7 7 9 9
2 2 2 1 1 0 0 0 -0 -0 -0 -0 -1 -0 2 5 5 4 2 2 4 5 6 6 6 7 7 8 8 8 8 8 7 8 8 9 8 8 8 7 7 9 9 9 9
3 3 2 2 1 1 0 0 -0 -0 -0 -0 -1 -0 4 7 4 4 5 5 5 5 6 6 6 6 7 7 8 8 8 8 8 8 8 9 8 10 7 9 8 9 9 9 9
2 3 3 2 2 1 1 0 -0 -0 0 -0 -1 2 5 6 4 4 5 6 6 6 6 7 6 6 7 9 8 9 9 8 9 9 9 9 10 9 7 10 9 9 9 9 9
3 3 3 2 2 1 1 0 0 0 0 -0 -0 3 6 4 3 5 5 6 6 6 6 6 6 7 8 8 9 10 10 10 9 9 9 9 11 7 7 9 9 8 9 10 10
3 3 3 2 2 2 1 1 1 1 0 0 3 4 6 3 5 5 5 6 6 6 6 7 6 7 8 8 9 9 11 11 10 9 10 10 10 8 8 10 9 8 8 9 10
4 4 3 2 2 2 1 1 1 1 2 4 5 6 6 7 5 6 6 6 7 6 7 7 7 8 9 9 12 10 11 11 11 10 11 11 11 9 8 9 9 8 7 9 10
4 4 3 3 2 2 2 4 6 7 6 6 7 7 8 5 5 6 7 7 7 8 9 8 9 10 9 8 9 10 11 11 9 11 11 11 11 10 9 9 9 8 8 9 10
4 4 3 3 3 2 4 6 7 7 10 7 8 8 8 6 8 7 7 8 8 9 9 10 11 8 9 10 10 10 11 10 10 12 12 12 13 11 10 9 9 8 7 8 10
4 4 4 3 3 5 7 7 5 5 9 8 8 8 8 7 8 8 8 8 9 10 10 10 9 11 10 11 11 11 11 10 12 12 12 14 13 13 11 11 10 9 9 9 10
4 4 4 4 5 5 8 7 6 6 12 12 11 9 8 8 10 10 9 9 10 10 11 10 10 11 11 11 10 12 10 11 12 13 14 13 16 12 12 12 11 9 10 10 11
3 3 4 4 6 7 8 6 6 9 18 12 12 8 9 10 10 10 9 10 10 11 10 10 12 12 11 10 10 11 12 12 13 13 15 13 16 14 15 14 12 10 9 10 10
3 3 4 5 6 6 7 7 9 14 19 13 11 11 11 11 11 11 10 10 10 11 11 11 11 11 10 13 12 13 13 14 15 15 17 14 15 15 14 13 12 10 10 10 10
3 3 4 5 7 7 7 8 14 18 15 15 13 12 12 12 12 12 12 13 12 13 13 12 12 12 11 12 12 12 12 14 15 17 17 16 18 15 12 11 11 9 8 10 10
3 4 4 4 7 7 9 11 18 14 14 13 13 13 12 12 12 12 13 13 12 12 13 12 13 13 11 10 11 13 12 14 19 17 16 18 19 14 12 10 10 11 11 12 11
4 4 6 5 7 7 10 15 15 13 12 14 13 14 13 13 13 13 13 12 11 11 12 13 13 13 14 13 12 15 15 12 14 20 18 15 13 12 12 12 12 12 11 11 11
5 6 7 5 6 8 13 14 13 11 13 12 14 12 14 13 14 13 13 12 11 11 10 12 15 14 16 14 15 15 13 16 14 18 18 16 15 15 13 13 12 12 12 10 11
5 9 6 6 6 10 15 14 12 11 12 13 13 13 13 13 13 14 13 12 11 12 10 10 11 14 14 15 14 16 15 15 14 15 16 18 17 14 13 11 12 11 10 10 10
6 10 7 6 12 11 14 13 12 12 11 12 12 12 13 13 14 14 14 12 10 12 14 11 12 13 13 15 15 14 14 14 16 17 16 15 16 12 11 11 11 10 11 10 10
8 8 7 6 14 14 12 12 12 12 12 12 12 12 12 14 16 13 13 11 11 12 13 13 14 16 15 16 17 16 15 14 14 14 16 17 17 11 10 11 11 11 10 10 10
6 11 10 9 9 11 13 12 13 11 12 13 13 12 14 14 13 13 14 12 11 11 11 11 14 14 17 15 15 16 15 15 15 16 16 16 14 12 11 11 10 10 11 10 10
6 9 10 14 13 11 10 11 12 13 11 11 13 13 13 15 14 14 12 12 13 12 12 12 15 14 13 12 13 14 14 15 16 15 16 14 14 12 11 11 10 9 10 10 10
7 9 9 10 10 11 11 12 12 11 10 12 13 11 12 14 13 13 12 13 13 13 13 14 15 14 16 14 14 15 14 13 14 14 14 14 15 12 11 10 11 10 10 10 10
4 4 7 10 11 12 12 12 11 10 9 9 10 11 12 11 10 9 9 10 11 12 13 14 15 15 17 14 14 17 15 14 13 12 13 15 12 10 11 11 10 10 10 11 10

GFSSW_con_lsi_003.txt.gz
Lid_Strength_Index
0 0 0 0 -0 -0 -0 -0 -0 -1 -1 -1 -0 -1 -1 -1 -0 3 5 3 2 -1 -0 3 3 3 3 3 3 4 7 8 8 8 7 7 8 7 7 6 7 6 6 7 6
1 1 1 0 0 -0 -0 -0 -0 -0 -0 -0 -0 -1 -0 -1 2 4 1 -0 -1 -1 3 4 4 4 4 4 4 6 7 7 6 6 7 7 7 6 8 7 7 7 6 7 7
1 1 1 1 0 0 -0 -0 -0 -0 -0 -0 -0 -1 -0 -0 4 4 -1 -1 -1 0 3 3 4 4 5 5 5 5 7 6 6 6 6 7 7 6 7 8 6 6 6 7 7
2 2 2 1 1 0 0 0 -0 -0 -0 -0 -0 -1 -0 1 8 4 -1 -1 -1 2 4 4 4 5 6 6 5 7 6 6 6 7 7 7 6 7 7 6 6 5 5 6 8
2 2 2 2 1 1 1 0 -0 -0 -0 -0 -0 -1 1 5 5 3 1 1 3 4 4 5 5 5 6 6 6 7 6 6 6 7 7 7 8 7 6 5 5 5 7 6 7
2 2 3 3 2 1 1 1 0 -0 -0 -0 -0 -0 3 7 3 3 4 4 4 4 5 5 5 4 6 7 7 6 7 7 6 7 7 8 7 8 6 5 5 5 7 7 6
2 2 3 3 2 2 2 1 1 0 0 -0 -1 1 4 6 3 3 4 4 4 4 5 5 4 5 5 6 6 7 8 7 6 7 8 8 9 8 6 6 7 6 6 6 6
3 3 3 3 3 2 2 1 1 0 0 -0 -1 2 6 3 2 4 4 5 5 5 5 5 5 5 6 6 7 8 8 10 7 7 7 8 11 7 6 6 8 7 6 7 7
3 4 3 3 3 3 2 2 1 1 1 0 1 3 7 4 4 4 4 5 5 5 5 5 5 6 7 8 8 8 10 9 8 7 8 9 10 7 6 7 7 7 6 6 7
4 4 4 3 3 3 3 2 1 2 1 2 4 5 5 6 4 5 5 5 6 5 6 6 6 7 7 8 11 10 10 9 9 8 9 9 10 8 7 7 7 7 7 6 6
4 4 4 3 3 3 3 4 6 6 5 6 6 5 7 5 4 5 6 6 6 7 8 7 9 10 8 7 8 8 9 10 9 7 9 10 10 9 7 7 7 7 7 7 6
3 4 3 3 3 3 4 7 6 6 10 7 6 7 6 4 7 6 6 7 8 9 7 9 11 8 7 8 9 9 10 10 8 8 11 10 11 9 8 8 8 8 7 7 7
3 3 4 3 3 4 6 6 4 5 9 9 7 8 7 6 8 7 7 7 8 9 9 10 9 8 9 9 10 10 11 10 10 8 10 11 12 10 9 8 8 8 8 8 8
3 3 3 3 5 5 7 6 5 5 12 11 11 9 8 8 10 9 8 8 9 10 9 9 8 9 10 10 9 11 8 9 10 11 13 11 15 11 10 10 10 10 8 8 8
3 3 3 4 4 6 6 6 5 8 17 11 11 8 8 10 10 11 9 10 10 10 10 10 10 11 11 10 8 10 10 10 10 11 12 12 14 13 12 12 11 10 8 7 7
3 3 3 4 4 4 5 5 6 13 17 13 11 11 11 11 12 11 10 9 10 11 10 10 10 10 9 11 10 11 11 12 12 12 16 13 13 14 12 12 10 9 8 7 8
3 4 4 4 5 5 5 6 13 16 12 13 12 11 11 11 12 12 13 13 13 14 13 10 11 10 10 11 11 11 11 13 15 16 16 11 14 12 10 10 10 9 8 7 8
3 4 5 4 4 5 7 10 16 13 12 11 12 11 12 11 12 12 12 13 12 12 13 13 14 12 10 10 9 12 10 13 19 16 15 14 16 13 9 9 9 9 8 8 8
3 4 5 5 5 5 9 14 13 11 10 11 12 13 13 12 11 11 12 11 10 11 13 13 14 13 11 11 10 12 14 10 13 14 16 15 12 10 9 10 10 10 9 9 9
4 5 6 5 6 7 12 13 10 9 9 11 13 11 13 12 13 12 12 10 10 9 9 11 14 11 14 13 13 13 12 14 14 18 18 16 14 14 11 11 10 10 10 8 9
4 8 5 6 6 11 16 15 10 8 8 12 12 12 12 12 11 12 12 10 10 10 10 11 12 14 15 15 14 15 15 14 14 13 16 17 16 11 11 10 10 9 9 8 8
4 10 6 6 12 12 15 12 10 9 9 11 10 12 12 11 12 12 12 11 9 10 13 11 13 16 14 11 12 12 13 13 16 16 14 15 16 11 10 10 10 9 9 8 7
6 7 5 5 13 13 12 11 9 10 10 11 13 12 12 13 15 13 12 10 9 10 11 12 14 16 15 15 15 15 13 13 12 13 16 17 15 10 10 9 9 9 8 9 9
6 10 8 8 7 10 12 12 11 9 9 10 12 11 12 14 13 14 13 11 10 11 11 10 13 15 17 14 12 14 14 14 14 16 16 15 14 12 11 10 9 9 8 8 8
5 9 8 11 10 10 9 10 11 12 9 9 11 11 12 14 13 14 12 12 11 12 12 12 15 14 13 12 12 13 13 14 15 15 16 15 14 12 11 10 9 9 9 9 9
7 8 8 8 8 9 10 11 11 10 9 10 11 10 10 12 11 12 12 12 12 12 12 11 15 14 16 14 14 15 13 13 13 13 13 13 14 11 10 9 10 9 9 9 9
4 5 9 9 9 10 11 10 10 9 8 8 8 9 10 9 8 8 8 8 9 11 13 14 14 15 17 14 14 17 14 13 13 12 12 14 12 9 10 9 9 8 8 9 9

GFSSW_con_lsi_006.txt.gz
Lid_Strength_Index
1 0 0 0 -0 -0 -0 -0 -0 -0 -1 -1 -1 -1 -1 -1 -0 3 5 2 1 -1 -0 3 4 4 3 4 4 4 10 11 9 10 9 9 10 8 9 10 9 8 9 9 7
1 1 1 1 0 0 -0 -0 -0 -0 -0 -1 -1 -1 -1 -1 2 4 0 -1 -2 -1 2 4 5 4 6 5 5 7 10 9 8 8 9 8 9 9 10 10 9 9 8 8 8
2 2 2 1 1 1 0 0 -0 -0 -0 -0 -0 -1 -1 0 4 4 -2 -2 -1 -0 3 4 4 4 6 5 6 7 9 8 8 7 8 8 9 8 9 10 9 9 8 9 9
2 2 2 2 1 1 1 0 0 -0 -0 -0 -1 -0 -0 1 8 3 -1 -1 -1 1 3 4 5 6 7 7 6 9 7 7 6 7 8 9 8 9 9 9 8 9 8 9 9
1 2 2 2 2 1 1 1 1 0 -0 -0 -1 -1 1 5 5 3 -0 0 2 4 5 5 6 6 7 7 7 8 8 7 7 8 8 8 9 9 9 8 7 7 8 9 9
2 2 2 2 2 2 2 1 1 1 0 0 -0 -0 3 8 3 3 4 4 3 4 5 5 6 6 7 7 8 8 8 8 8 8 8 9 9 9 8 7 7 7 9 9 9
2 2 2 2 2 2 2 2 1 1 1 0 -0 0 4 6 3 4 4 4 4 4 5 5 5 6 6 7 7 8 10 9 8 8 9 9 11 10 8 8 8 8 8 8 8
3 4 4 4 3 3 2 2 2 1 1 1 -0 2 6 3 4 4 4 5 5 5 5 5 5 6 7 7 8 10 10 12 9 8 9 10 13 9 8 8 8 9 9 8 8
3 4 4 4 3 3 3 3 3 2 2 1 2 3 7 3 4 4 4 5 5 5 5 5 5 7 8 10 11 10 13 12 10 8 9 11 12 9 9 10 10 9 9 9 8
3 3 4 3 3 3 3 3 2 3 2 2 4 7 6 7 5 5 5 5 6 6 7 7 8 10 10 11 15 13 13 11 12 10 10 12 12 10 9 9 10 9 8 8 8
3 3 3 3 3 3 4 5 7 6 6 8 7 7 7 6 4 6 6 6 6 7 10 8 11 13 11 10 10 10 11 12 10 9 11 11 11 10 10 9 9 9 8 8 9
2 3 3 3 3 3 4 7 7 7 11 8 8 7 7 6 8 7 6 9 9 11 10 11 13 10 9 9 11 11 12 12 11 10 11 12 12 10 10 9 9 9 9 9 10
3 3 3 3 3 3 5 7 5 6 11 10 9 9 9 7 9 9 9 9 10 11 11 12 11 9 10 11 11 12 13 13 13 11 12 14 14 13 11 9 9 9 9 10 11
2 2 3 3 5 5 6 6 5 5 14 12 11 9 9 8 12 9 8 9 10 12 11 12 10 10 11 12 11 14 11 11 12 14 16 13 17 14 13 12 11 10 10 11 11
3 3 2 3 5 6 6 6 5 7 19 11 12 8 9 11 11 12 10 11 13 12 12 13 13 13 13 12 10 13 12 13 13 14 15 15 17 16 12 13 12 11 10 10 10
3 3 3 4 4 5 5 5 6 14 20 13 11 12 12 11 12 12 12 11 11 13 13 13 12 12 12 12 12 12 13 14 15 16 19 16 16 18 15 13 13 11 11 11 11
3 3 4 4 6 5 6 8 15 18 12 13 13 12 12 12 12 13 14 15 15 17 16 14 14 13 12 14 13 13 15 18 19 20 19 15 17 15 13 12 12 12 11 11 11
3 3 4 4 5 5 7 11 18 13 13 11 12 12 13 12 12 13 14 15 14 14 15 16 17 14 13 13 14 15 14 18 21 20 18 18 19 16 12 11 11 11 11 11 12
3 4 5 4 5 6 10 17 14 11 10 10 11 14 14 13 13 13 14 14 12 13 15 16 15 14 13 13 12 15 17 14 17 21 21 17 16 14 12 12 12 12 12 12 12
4 4 5 3 5 7 13 15 13 8 8 10 13 12 15 13 14 14 14 13 12 11 11 13 15 14 15 14 15 15 14 18 17 23 24 18 18 16 13 12 13 13 13 12 12
4 6 5 4 4 9 15 15 11 8 8 10 11 12 13 14 13 13 14 12 12 12 11 13 14 16 15 17 16 17 17 16 16 16 22 21 18 15 14 13 13 13 12 11 11
4 9 6 4 10 11 13 12 10 10 8 10 12 12 13 13 14 13 13 12 10 11 13 12 13 17 15 13 15 14 15 15 18 19 19 18 17 12 13 13 13 12 11 11 11
6 7 4 4 12 12 11 10 9 9 10 10 10 10 10 12 14 13 12 11 10 11 14 12 16 19 18 15 16 16 15 14 14 15 17 19 17 11 11 11 12 12 12 11 11
6 10 7 6 6 10 11 11 11 9 9 8 9 9 11 13 12 13 13 10 10 11 10 10 14 15 17 15 13 16 16 16 15 15 17 17 16 13 12 12 11 10 10 11 11
6 8 7 11 10 9 9 10 12 12 8 8 10 10 11 13 12 12 11 12 11 10 10 11 16 15 14 13 13 14 14 14 15 14 17 16 15 13 12 11 11 10 10 11 11
8 8 8 8 8 9 9 11 11 10 10 11 11 10 10 12 11 12 11 11 11 12 10 11 15 15 16 15 15 16 14 14 14 14 14 14 14 11 11 10 11 11 10 10 10
5 6 8 10 9 10 10 10 10 9 8 8 9 10 11 10 8 7 7 7 8 10 12 13 13 15 17 15 15 17 15 14 13 12 13 15 13 10 11 11 10 9 9 9 9

GFSSW_con_lsi_009.txt.gz
Lid_Strength_Index
1 1 1 0 0 0 -0 -0 -0 -0 -0 -0 -0 -1 -1 -1 -1 3 6 3 2 -2 1 4 5 6 6 6 6 7 12 14 12 11 11 10 11 10 10 10 10 8 10 9 8
1 1 1 1 1 1 0 0 0 -0 -0 -0 -0 -0 -1 -0 3 5 0 -3 -2 -1 4 6 7 6 8 7 7 9 12 11 10 11 11 10 10 10 11 11 11 10 10 9 9
2 2 2 2 1 1 1 1 1 0 0 -0 -0 -0 -0 0 5 5 -2 -3 -2 -0 4 5 6 6 9 8 8 10 11 9 9 9 10 10 11 9 10 11 10 10 10 10 10
1 2 2 2 2 1 1 1 1 1 0 0 -0 -0 0 2 13 4 -1 -1 -1 3 5 6 7 9 10 10 7 10 8 8 8 8 9 10 9 10 10 9 8 9 9 9 10
1 1 2 2 2 1 1 1 1 1 1 0 0 -0 2 7 7 3 -0 -0 3 4 6 7 8 8 10 9 9 10 9 8 8 9 9 9 10 10 10 9 8 8 9 10 10
1 2 2 2 2 2 2 2 2 1 1 1 0 0 6 10 4 4 4 4 5 6 7 7 8 7 9 9 10 10 9 9 9 8 9 9 10 10 9 8 9 8 9 10 9
2 2 2 2 2 2 2 2 2 2 2 1 1 1 6 8 5 5 5 6 6 6 7 7 7 8 8 9 8 9 11 10 9 9 10 9 11 11 8 9 9 9 9 9 9
3 3 3 3 3 3 3 3 2 2 2 1 1 4 10 5 7 6 6 7 6 6 6 6 7 7 8 9 10 12 13 14 11 10 10 10 13 10 9 10 10 9 10 10 9
3 4 4 3 3 3 3 3 3 2 2 1 5 6 10 4 7 6 6 7 7 7 7 6 7 9 9 12 14 14 16 14 12 10 11 11 13 10 9 10 10 11 11 10 9
3 3 3 3 3 3 3 2 3 3 3 2 4 10 9 9 6 7 8 6 8 8 8 9 10 12 12 14 16 16 15 14 14 12 12 13 12 10 10 11 11 11 11 11 9
3 3 3 3 3 2 4 7 10 10 7 11 10 10 9 8 7 8 8 8 8 10 12 10 14 15 12 12 13 14 15 15 12 10 11 11 12 11 10 11 11 11 10 9 9
2 2 3 3 2 2 5 8 9 9 13 10 10 9 7 7 10 9 8 11 11 13 12 13 15 12 11 11 12 13 14 14 12 11 12 13 13 11 11 11 10 10 10 9 9
2 2 2 2 2 4 7 8 6 7 12 11 10 11 10 8 10 10 10 11 13 14 13 14 13 11 12 12 13 13 14 14 14 13 13 14 15 13 12 11 10 9 9 9 9
2 2 2 3 5 6 8 7 6 7 17 14 12 10 10 10 13 10 10 10 12 13 13 14 11 12 14 14 12 15 12 13 14 16 17 15 19 16 14 13 12 10 10 10 12
3 3 3 3 7 7 6 6 6 10 22 13 13 9 10 13 13 12 11 12 14 14 14 15 15 14 14 13 12 14 14 14 15 16 18 17 18 17 15 15 13 11 11 10 11
3 3 3 4 6 6 6 7 9 17 21 14 13 13 13 13 13 13 13 12 13 14 14 15 14 13 13 14 13 14 15 16 17 18 20 18 17 18 17 14 14 12 11 10 10
2 3 4 4 6 6 6 8 15 20 14 15 14 13 14 14 14 14 15 16 17 18 18 16 15 14 13 15 15 15 17 21 22 22 20 16 18 16 15 14 13 12 12 11 12
3 3 3 3 5 6 6 11 18 13 14 12 13 14 15 13 14 15 16 17 15 15 17 18 18 15 14 14 15 16 15 19 24 21 19 19 21 17 13 12 12 12 11 13 13
3 3 4 4 5 6 9 16 15 13 10 10 10 12 16 14 14 15 17 17 15 13 16 17 17 15 14 14 13 16 17 14 18 25 22 18 17 15 13 13 13 13 14 13 13
3 4 4 3 5 7 12 13 12 10 9 9 13 12 14 12 15 14 16 15 14 13 11 14 17 14 15 15 15 15 15 18 19 24 25 18 20 17 14 13 12 14 14 13 12
3 6 4 4 4 9 14 13 11 9 9 10 11 12 12 13 12 12 14 13 13 13 12 14 15 16 16 17 16 17 17 16 16 18 19 20 18 15 15 14 13 14 13 13 12
4 9 4 3 9 9 12 11 9 9 9 9 10 10 11 11 12 12 13 11 10 11 13 13 14 18 16 15 14 15 15 15 17 19 19 17 17 11 13 13 13 13 13 14 12
7 7 4 4 12 11 10 10 8 9 9 9 10 9 9 11 14 11 11 9 9 10 12 12 15 18 16 14 16 15 14 13 14 15 17 19 18 11 11 11 11 13 13 12 12
8 10 7 6 6 9 11 11 11 8 9 8 9 8 10 12 10 12 12 9 9 8 8 9 15 16 18 15 13 15 14 14 13 16 15 16 15 13 12 12 11 11 10 10 11
8 10 8 11 10 9 9 10 11 11 8 8 10 10 11 13 12 12 11 10 9 8 9 10 15 14 13 13 13 13 13 13 14 14 16 15 15 13 12 11 10 10 10 10 12
11 10 8 10 8 9 9 11 11 10 10 11 11 10 10 12 12 13 11 11 11 11 10 9 15 13 15 13 13 15 13 12 12 13 13 13 13 11 10 9 10 9 9 10 10
7 6 8 11 12 11 11 9 9 8 8 8 9 10 11 10 8 9 10 10 10 11 12 12 13 15 18 14 14 17 14 13 12 11 12 14 11 9 9 9 9 9 9 10 9

GFSSW_con_lsi_012.txt.gz
Lid_Strength_Index
1 1 1 1 1 0 0 0 0 0 -0 -0 -0 -0 -0 -1 -0 4 7 4 2 -2 0 5 5 6 7 7 7 8 13 14 13 12 12 11 11 10 11 11 10 9 10 10 9
1 1 1 1 1 1 1 1 1 1 0 -0 -0 -0 -0 -0 4 6 1 -3 -3 -2 5 6 7 7 9 8 8 10 14 13 11 11 12 11 11 11 12 11 11 10 10 9 9
1 1 1 1 1 1 1 1 1 1 1 0 0 -0 -0 1 6 6 -2 -2 -3 -1 5 6 6 7 9 9 9 10 12 10 9 10 10 10 11 10 11 11 10 10 10 10 11
1 1 2 2 2 1 1 1 1 1 1 1 0 0 -0 3 13 5 -2 -2 -2 3 5 7 8 9 10 10 8 11 9 9 8 8 10 11 10 11 11 8 9 9 10 10 11
1 1 2 2 2 2 1 1 1 1 1 1 1 0 3 9 8 3 -1 -1 2 4 7 7 8 9 10 10 10 10 10 9 8 9 10 9 10 11 10 9 9 9 9 10 10
2 2 2 2 2 2 2 1 1 1 1 1 1 1 7 12 6 4 4 4 5 6 7 7 8 8 9 10 10 11 10 10 9 9 9 10 11 10 8 9 9 9 9 10 10
1 2 2 2 2 2 2 2 2 1 1 1 1 2 7 10 6 6 6 6 7 7 8 8 8 8 10 10 9 10 11 11 10 10 10 10 12 12 8 10 9 9 10 10 10
3 3 3 3 2 2 2 2 2 2 2 2 1 5 11 6 7 7 7 8 8 8 8 8 8 9 10 9 11 13 13 14 12 11 11 11 13 11 9 10 10 10 10 10 9
3 3 4 3 3 3 3 3 3 3 2 1 5 8 11 5 8 7 8 9 8 8 8 7 8 11 10 13 15 15 16 15 13 11 11 12 13 11 10 11 11 10 11 10 10
3 3 3 3 3 3 2 2 3 3 3 2 4 11 9 10 7 8 9 8 9 9 10 10 11 13 13 15 17 16 17 15 15 13 13 13 13 10 10 12 12 11 12 12 11
2 3 3 3 3 2 4 7 11 11 8 11 11 11 9 8 8 9 8 9 9 11 14 12 15 16 13 13 13 16 16 16 14 12 13 13 13 11 10 11 12 11 10 9 10
2 2 2 2 2 2 6 8 9 9 13 10 10 9 8 8 10 9 8 11 11 14 13 15 16 13 13 13 14 14 15 15 13 12 14 14 14 12 12 11 10 10 10 10 9
2 2 2 2 2 5 7 8 6 7 13 12 10 11 10 8 11 10 9 11 13 15 14 14 14 12 13 14 15 15 15 15 15 14 15 16 16 15 13 12 10 11 10 9 9
2 2 3 3 5 6 8 7 7 8 18 15 13 11 10 10 13 11 11 12 14 14 14 15 12 13 14 14 13 15 13 14 15 17 18 17 19 17 15 14 13 12 10 10 9
2 2 3 3 7 7 7 7 7 11 22 14 13 9 10 13 13 13 12 12 15 15 14 15 15 15 15 14 14 14 15 15 16 18 18 19 19 17 15 16 14 12 11 11 10
2 2 3 4 6 6 6 7 9 17 20 15 13 14 14 13 13 13 14 13 14 15 15 15 14 14 14 14 14 14 15 16 18 18 20 18 18 19 17 15 14 12 12 11 10
3 3 4 4 6 6 6 7 13 18 13 15 15 14 14 15 15 15 16 16 16 18 19 17 16 15 14 16 15 15 17 21 22 23 21 17 19 15 15 14 13 12 12 11 11
4 3 4 3 5 6 6 10 17 12 14 12 13 14 15 14 14 15 17 18 16 17 18 19 18 16 14 14 16 16 16 18 23 21 18 19 20 17 14 12 12 12 12 13 13
4 3 4 4 5 4 8 15 14 12 11 10 10 13 15 15 14 15 17 17 15 15 16 18 17 15 15 15 14 17 18 15 18 23 24 18 16 14 15 14 13 13 14 13 13
6 5 5 4 4 6 10 13 12 9 9 9 13 12 15 14 13 15 16 15 15 14 12 14 16 14 16 15 16 15 15 18 19 22 23 19 20 16 15 14 14 14 14 14 13
5 7 5 3 3 7 13 12 10 8 8 10 12 12 12 13 12 12 13 13 13 14 13 13 14 15 16 17 15 17 17 17 16 17 19 20 17 14 15 15 14 14 13 13 13
5 10 3 2 9 9 11 9 8 9 7 8 9 10 11 11 12 12 13 10 10 11 12 12 14 16 15 15 15 15 14 14 17 18 18 17 16 11 11 11 11 11 12 13 13
7 7 3 3 12 11 9 9 8 9 9 9 10 9 9 11 14 11 11 8 7 8 10 10 14 18 17 13 12 16 14 14 14 14 16 18 16 10 10 10 10 12 11 9 11
8 11 6 6 6 9 10 10 11 7 9 8 9 8 10 12 10 12 11 9 8 8 7 8 13 15 17 14 12 14 14 14 15 17 16 16 15 13 11 11 10 10 9 9 10
9 11 8 11 9 9 9 10 11 11 8 8 10 10 11 13 12 12 11 10 9 8 8 10 15 14 13 12 12 12 13 12 13 13 16 14 14 12 10 10 9 8 8 9 11
10 11 9 10 10 9 9 10 11 10 9 11 11 10 10 12 12 13 13 12 12 10 11 10 14 13 15 13 13 14 13 12 12 12 12 12 13 8 7 7 7 7 7 8 9
9 6 8 11 12 13 12 11 10 10 8 8 10 11 11 10 10 10 9 9 9 10 12 11 13 14 17 14 14 17 13 13 12 11 12 15 11 10 11 10 8 9 12 12 11

GFSSW_con_lsi_015.txt.gz
Lid_Strength_Index
1 1 1 1 1 0 0 0 0 0 0 0 -0 -0 -0 -0 -0 4 7 4 3 -2 1 6 6 7 7 8 8 10 14 15 14 13 12 11 12 11 11 11 11 9 11 10 10
1 1 1 1 1 1 1 0 1 1 0 0 0 0 -0 -0 4 7 2 -2 -2 -2 5 6 8 8 9 9 8 10 15 14 12 12 12 11 11 11 10 12 12 11 10 10 10
1 1 1 1 1 1 1 1 1 1 1 1 0 0 0 1 8 8 -1 -3 -2 -0 5 6 7 8 10 10 9 11 12 11 10 10 10 11 12 11 12 11 11 10 10 10 11
1 1 1 2 2 1 1 1 1 1 1 1 1 0 0 4 13 7 -2 -2 -2 3 6 7 8 9 10 10 9 12 10 10 9 9 10 11 10 11 11 8 9 9 10 10 11
1 1 2 2 2 2 2 1 1 1 1 1 1 0 4 10 9 4 -1 -1 2 5 7 8 9 9 11 11 10 11 10 9 9 9 9 9 10 11 11 8 9 9 10 10 10
1 1 1 2 2 2 1 1 1 1 1 1 1 1 8 13 7 4 4 4 6 7 8 8 9 9 10 11 11 11 10 10 10 10 10 10 10 11 8 10 10 10 10 10 10
2 2 2 2 2 2 2 2 1 1 1 1 1 2 8 11 7 6 6 7 7 8 9 9 9 10 11 12 10 11 12 12 11 11 10 10 12 12 8 10 10 10 10 10 10
2 2 2 2 2 2 2 2 2 1 1 1 1 5 12 7 8 8 8 9 8 8 8 9 9 10 11 11 12 14 14 15 12 12 12 11 14 10 10 10 10 10 11 11 10
2 2 2 2 2 2 2 2 2 3 3 2 6 9 12 6 9 8 8 9 9 9 9 7 10 12 12 15 16 17 18 16 14 11 12 13 14 11 11 11 11 11 11 10 10
3 3 3 3 3 3 3 3 3 4 3 3 5 12 11 10 8 8 9 8 10 10 11 11 13 14 15 16 18 18 18 17 17 14 14 14 14 12 10 12 12 11 11 10 9
2 3 3 3 3 2 4 8 11 12 9 12 11 12 11 8 8 9 8 9 10 12 14 13 15 16 14 14 15 17 17 17 15 13 15 15 14 13 11 11 11 12 11 10 9
2 2 2 2 2 3 7 10 10 10 13 10 10 10 9 8 11 10 8 11 12 14 14 15 17 13 14 15 15 15 16 16 14 13 16 15 15 14 13 12 11 10 10 10 10
3 2 2 2 3 5 9 9 7 8 14 12 11 12 11 9 11 11 9 11 13 14 14 15 14 13 14 15 16 16 17 15 16 15 16 17 16 15 14 13 11 11 11 10 10
3 3 2 2 5 7 8 7 7 9 17 15 13 13 11 11 13 11 11 12 14 14 15 15 13 14 15 16 14 16 14 14 15 18 19 17 20 18 15 14 14 12 11 11 11
3 3 2 3 6 6 6 7 8 12 20 13 14 11 11 14 14 14 12 12 15 15 15 16 16 16 16 14 14 15 15 16 17 19 19 19 21 18 16 16 14 13 12 11 11
3 3 3 4 5 5 6 6 9 14 19 15 14 14 14 14 14 14 14 13 14 15 15 15 15 14 14 15 15 15 16 17 19 19 21 18 18 18 17 15 15 13 12 12 11
4 3 4 3 5 5 6 7 13 17 13 15 16 15 15 15 15 15 16 16 17 18 19 18 16 16 14 16 16 16 18 21 22 23 21 18 19 16 14 14 14 12 12 13 13
5 4 3 3 4 4 5 9 17 13 13 12 14 15 15 14 14 15 17 18 16 17 19 19 18 16 15 15 16 17 17 20 25 21 18 19 20 15 14 13 14 14 13 14 13
5 4 4 3 5 4 8 15 15 12 10 11 11 13 15 15 14 15 17 17 15 15 16 19 17 16 15 15 14 18 18 15 18 21 22 17 16 13 15 14 15 14 14 14 15
9 7 6 3 4 5 9 13 11 9 10 9 14 11 15 15 12 15 15 15 15 15 13 14 17 14 16 16 16 15 15 19 19 22 23 20 18 17 14 13 13 14 14 13 14
6 8 6 3 3 7 13 13 11 8 8 10 12 12 12 13 12 13 13 11 13 13 13 13 13 15 14 16 15 17 17 17 17 17 19 19 17 12 13 14 14 14 14 13 13
6 10 4 2 9 9 11 10 9 9 7 9 9 10 11 11 12 12 13 11 9 10 12 11 13 16 14 14 14 14 14 14 17 17 16 16 16 10 10 11 13 11 10 10 12
9 8 2 3 12 11 9 9 8 9 9 9 10 9 9 11 14 11 11 8 7 9 10 10 14 18 17 13 13 13 12 12 12 13 16 18 16 9 9 10 9 11 11 11 11
9 13 7 5 6 9 10 10 11 8 9 8 9 9 10 11 10 12 11 9 8 8 7 8 13 15 18 16 12 14 13 12 12 16 15 15 13 11 9 9 9 9 9 10 11
10 12 9 11 9 9 9 9 11 11 8 8 10 10 11 13 12 13 11 10 9 8 9 10 15 14 13 12 13 13 14 13 15 13 16 14 14 12 9 9 10 11 12 13 13
11 12 9 12 10 10 9 10 11 10 9 10 11 9 10 12 12 13 13 12 13 11 12 12 16 14 16 14 14 14 14 13 13 13 14 14 14 13 14 15 16 14 14 14 14
9 8 9 11 12 13 12 10 10 11 8 9 11 11 11 10 11 11 11 11 12 13 13 12 13 17 19 16 17 19 15 13 12 12 13 15 16 15 16 16 16 15 15 14 14